When you browse on this site, cookies collect data to enhance your experience and personalize the content and advertising you see.
Visit our Privacy Policy to learn more. By continuing to use the site, you agree to this use of cookies and data.
  • In Czech Republic
  • List of Countries
  • For 7 days
  • Water Temperature
  • Weather Map
  • Weather Widgets
  • user-avatar
    Login

    Hourly Weather Onzaga

    Today, 18 November, Monday

    Time Temperature Precipitation Wind Pressure Humidity
    00:00 +13°C° 0 mm 0 mps 588 mmHg 94%
    01:00 +13°C° 0 mm 0 mps 588 mmHg 93%
    02:00 +13°C° 0 mm 0 mps 588 mmHg 92%
    03:00 +13°C° 0 mm 0 mps 588 mmHg 92%
    04:00 +13°C° 0 mm 0 mps 588 mmHg 91%
    05:00 +13°C° 0 mm 0 mps 589 mmHg 89%
    06:00 +14°C° 0 mm 0 mps 589 mmHg 86%
    07:00 +15°C° 0 mm 0 mps 590 mmHg 84%
    08:00 +19°C° 0 mm 1 mps 591 mmHg 75%
    09:00 +21°C° 0 mm 1 mps 592 mmHg 66%
    10:00 +23°C° 0 mm 1 mps 593 mmHg 58%
    11:00 +23°C° 0.1 mm 2 mps 592 mmHg 59%
    12:00 +23°C° 0.1 mm 2 mps 592 mmHg 61%
    13:00 +24°C° 0.1 mm 2 mps 591 mmHg 63%
    14:00 +23°C° 0.5 mm 2 mps 591 mmHg 69%
    15:00 +21°C° 0.5 mm 2 mps 590 mmHg 75%
    16:00 +21°C° 0.5 mm 1 mps 589 mmHg 81%
    17:00 +20°C° 0.8 mm 1 mps 589 mmHg 86%
    18:00 +16°C° 0.8 mm 0 mps 589 mmHg 92%
    19:00 +14°C° 0.8 mm 0 mps 589 mmHg 97%
    20:00 +14°C° 0.3 mm 0 mps 589 mmHg 96%
    21:00 +14°C° 0.3 mm 0 mps 589 mmHg 96%
    22:00 +13°C° 0.3 mm 0 mps 589 mmHg 96%
    23:00 +13°C° 0.1 mm 0 mps 589 mmHg 95%

    Tomorrow, 19 November, Tuesday

    Time Temperature Precipitation Wind Pressure Humidity
    00:00 +13°C° 0.1 mm 0 mps 589 mmHg 95%
    01:00 +13°C° 0.1 mm 0 mps 589 mmHg 95%
    02:00 +13°C° 0 mm 0 mps 589 mmHg 95%
    03:00 +13°C° 0 mm 0 mps 589 mmHg 95%
    04:00 +13°C° 0 mm 0 mps 589 mmHg 95%
    05:00 +13°C° 0 mm 0 mps 589 mmHg 93%
    06:00 +14°C° 0 mm 0 mps 590 mmHg 92%
    07:00 +15°C° 0 mm 0 mps 591 mmHg 90%
    08:00 +17°C° 0.1 mm 0 mps 591 mmHg 83%
    09:00 +21°C° 0.1 mm 1 mps 592 mmHg 75%
    10:00 +22°C° 0.1 mm 1 mps 593 mmHg 67%
    11:00 +22°C° 0.6 mm 1 mps 593 mmHg 70%
    12:00 +22°C° 0.6 mm 1 mps 592 mmHg 72%
    13:00 +21°C° 0.6 mm 2 mps 591 mmHg 75%
    14:00 +22°C° 1.1 mm 1 mps 591 mmHg 78%
    15:00 +21°C° 1.1 mm 1 mps 590 mmHg 82%
    16:00 +20°C° 1.1 mm 1 mps 590 mmHg 85%
    17:00 +19°C° 0.9 mm 1 mps 590 mmHg 89%
    18:00 +18°C° 0.9 mm 1 mps 590 mmHg 92%
    19:00 +15°C° 0.9 mm 0 mps 590 mmHg 96%
    20:00 +14°C° 0.3 mm 0 mps 590 mmHg 96%
    21:00 +14°C° 0.3 mm 0 mps 590 mmHg 95%
    22:00 +14°C° 0.3 mm 0 mps 590 mmHg 95%
    23:00 +14°C° 0.1 mm 0 mps 590 mmHg 95%

    Day after tomorrow, 20 November, Wednesday

    Time Temperature Precipitation Wind Pressure Humidity
    00:00 +13°C° 0.1 mm 0 mps 590 mmHg 95%
    01:00 +13°C° 0.1 mm 0 mps 589 mmHg 95%
    02:00 +13°C° 0.2 mm 0 mps 589 mmHg 96%
    03:00 +13°C° 0.2 mm 0 mps 589 mmHg 96%
    04:00 +13°C° 0.2 mm 0 mps 589 mmHg 96%
    05:00 +14°C° 0.1 mm 0 mps 590 mmHg 95%
    06:00 +14°C° 0.1 mm 0 mps 590 mmHg 94%
    07:00 +14°C° 0.1 mm 0 mps 591 mmHg 93%
    08:00 +16°C° 0.2 mm 0 mps 591 mmHg 89%
    09:00 +19°C° 0.2 mm 1 mps 592 mmHg 86%
    10:00 +20°C° 0.2 mm 1 mps 593 mmHg 82%
    11:00 +21°C° 0.4 mm 1 mps 592 mmHg 80%
    12:00 +20°C° 0.4 mm 2 mps 592 mmHg 79%
    13:00 +21°C° 0.4 mm 2 mps 591 mmHg 77%
    14:00 +20°C° 0.6 mm 2 mps 591 mmHg 81%
    15:00 +19°C° 0.6 mm 2 mps 590 mmHg 85%
    16:00 +19°C° 0.6 mm 1 mps 590 mmHg 90%
    17:00 +18°C° 0.5 mm 1 mps 589 mmHg 92%
    18:00 +16°C° 0.5 mm 1 mps 589 mmHg 94%
    19:00 +14°C° 0.5 mm 0 mps 589 mmHg 97%
    20:00 +14°C° 0.2 mm 0 mps 589 mmHg 96%
    21:00 +13°C° 0.2 mm 0 mps 590 mmHg 96%
    22:00 +13°C° 0.2 mm 0 mps 590 mmHg 95%
    23:00 +13°C° 0 mm 0 mps 590 mmHg 95%

    21 November, Thursday

    Time Temperature Precipitation Wind Pressure Humidity
    00:00 +13°C° 0 mm 0 mps 589 mmHg 95%
    01:00 +13°C° 0 mm 0 mps 589 mmHg 95%
    02:00 +13°C° 0 mm 0 mps 589 mmHg 95%
    03:00 +13°C° 0 mm 0 mps 589 mmHg 94%
    04:00 +13°C° 0 mm 0 mps 589 mmHg 94%
    05:00 +13°C° 0.1 mm 0 mps 590 mmHg 93%
    06:00 +14°C° 0.1 mm 0 mps 590 mmHg 92%
    07:00 +14°C° 0.1 mm 0 mps 591 mmHg 91%
    08:00 +16°C° 0.1 mm 0 mps 591 mmHg 85%
    09:00 +19°C° 0.1 mm 1 mps 592 mmHg 80%
    10:00 +21°C° 0.1 mm 1 mps 593 mmHg 74%
    11:00 +21°C° 0.3 mm 1 mps 592 mmHg 74%
    12:00 +21°C° 0.3 mm 2 mps 592 mmHg 73%
    13:00 +21°C° 0.3 mm 2 mps 591 mmHg 72%
    14:00 +20°C° 0.7 mm 2 mps 590 mmHg 77%
    15:00 +20°C° 0.7 mm 1 mps 590 mmHg 82%
    16:00 +20°C° 0.7 mm 1 mps 589 mmHg 86%
    17:00 +18°C° 0.7 mm 1 mps 589 mmHg 90%
    18:00 +16°C° 0.7 mm 1 mps 589 mmHg 93%
    19:00 +14°C° 0.7 mm 0 mps 589 mmHg 96%
    20:00 +14°C° 0.3 mm 0 mps 589 mmHg 96%
    21:00 +13°C° 0.3 mm 0 mps 589 mmHg 96%
    22:00 +13°C° 0.3 mm 0 mps 589 mmHg 95%
    23:00 +12°C° 0 mm 0 mps 589 mmHg 95%

    22 November, Friday

    Time Temperature Precipitation Wind Pressure Humidity
    00:00 +12°C° 0 mm 0 mps 589 mmHg 95%
    01:00 +12°C° 0 mm 0 mps 588 mmHg 95%
    02:00 +12°C° 0 mm 0 mps 588 mmHg 95%
    03:00 +12°C° 0 mm 0 mps 588 mmHg 95%
    04:00 +12°C° 0 mm 0 mps 588 mmHg 94%
    05:00 +12°C° 0 mm 0 mps 589 mmHg 92%
    06:00 +13°C° 0 mm 0 mps 589 mmHg 91%
    07:00 +14°C° 0 mm 0 mps 590 mmHg 89%
    08:00 +16°C° 0.1 mm 1 mps 591 mmHg 83%
    09:00 +19°C° 0.1 mm 1 mps 592 mmHg 78%
    10:00 +20°C° 0.1 mm 2 mps 593 mmHg 72%
    11:00 +20°C° 0.6 mm 2 mps 592 mmHg 73%
    12:00 +20°C° 0.6 mm 2 mps 592 mmHg 74%
    13:00 +21°C° 0.6 mm 2 mps 591 mmHg 74%
    14:00 +21°C° 1.2 mm 1 mps 590 mmHg 78%
    15:00 +20°C° 1.2 mm 1 mps 590 mmHg 83%
    16:00 +19°C° 1.2 mm 1 mps 589 mmHg 87%
    17:00 +18°C° 1 mm 1 mps 589 mmHg 89%
    18:00 +16°C° 1 mm 1 mps 589 mmHg 91%
    19:00 +15°C° 1 mm 1 mps 589 mmHg 93%
    20:00 +15°C° 0.2 mm 1 mps 589 mmHg 92%
    21:00 +14°C° 0.2 mm 0 mps 589 mmHg 92%
    22:00 +14°C° 0.2 mm 0 mps 590 mmHg 91%
    23:00 +13°C° 0 mm 0 mps 589 mmHg 92%

    23 November, Saturday

    Time Temperature Precipitation Wind Pressure Humidity
    00:00 +13°C° 0 mm 0 mps 589 mmHg 93%
    01:00 +13°C° 0 mm 0 mps 588 mmHg 94%
    02:00 +12°C° 0 mm 0 mps 588 mmHg 94%
    03:00 +12°C° 0 mm 0 mps 588 mmHg 94%
    04:00 +12°C° 0 mm 0 mps 588 mmHg 94%
    05:00 +12°C° 0 mm 0 mps 588 mmHg 92%
    06:00 +13°C° 0 mm 0 mps 589 mmHg 91%
    07:00 +14°C° 0 mm 0 mps 590 mmHg 90%
    08:00 +16°C° 0.1 mm 0 mps 591 mmHg 84%
    09:00 +19°C° 0.1 mm 1 mps 592 mmHg 79%
    10:00 +21°C° 0.1 mm 1 mps 593 mmHg 73%
    11:00 +21°C° 0.8 mm 1 mps 592 mmHg 75%
    12:00 +21°C° 0.8 mm 1 mps 591 mmHg 78%
    13:00 +20°C° 0.8 mm 2 mps 591 mmHg 80%
    14:00 +19°C° 1.3 mm 2 mps 590 mmHg 83%
    15:00 +20°C° 1.3 mm 1 mps 589 mmHg 86%
    16:00 +19°C° 1.3 mm 1 mps 588 mmHg 90%
    17:00 +18°C° 0.7 mm 1 mps 589 mmHg 92%
    18:00 +16°C° 0.7 mm 1 mps 589 mmHg 94%
    19:00 +14°C° 0.7 mm 0 mps 589 mmHg 96%
    20:00 +14°C° 0.7 mm 0 mps 589 mmHg 96%
    21:00 +14°C° 0.7 mm 0 mps 590 mmHg 95%
    22:00 +14°C° 0.7 mm 0 mps 590 mmHg 95%
    23:00 +14°C° 1.3 mm 0 mps 590 mmHg 95%
    Show more